This is the latest recevied weather packets stored in our database for station/object W8RSN-13. If no packets are shown the sender has not sent any weather packets the latest 10 day(s).
| Time | Temp. | Humidity | Pressure | Rain* | Wind** | Luminosity | Snow |
|---|---|---|---|---|---|---|---|
| 1787907864 | 25.56° C | 73% | 1013.3 hPa | - | - | - | - |
| 1787907563 | 25.56° C | 73% | 1013.4 hPa | - | - | - | - |
| 1787907262 | 25.56° C | 72% | 1013.4 hPa | - | - | - | - |
| 1787906961 | 25.56° C | 70% | 1013.4 hPa | - | - | - | - |
| 1787906660 | 26.11° C | 67% | 1013.3 hPa | - | - | - | - |
| 1787906359 | 26.11° C | 66% | 1013.4 hPa | - | - | - | - |
| 1787906058 | 26.11° C | 67% | 1013.4 hPa | - | - | - | - |
| 1787905757 | 26.11° C | 69% | 1013.6 hPa | - | - | - | - |
| 1787905456 | 26.11° C | 69% | 1013.3 hPa | - | - | - | - |
| 1787905176 | 26.11° C | 69% | 1013.2 hPa | - | - | - | - |
| 1787904874 | 26.11° C | 69% | 1013.3 hPa | - | - | - | - |
| 1787904574 | 26.67° C | 66% | 1013.2 hPa | - | - | - | - |
| 1787904273 | 26.67° C | 67% | 1013.4 hPa | - | - | - | - |
| 1787903972 | 26.67° C | 67% | 1013.3 hPa | - | - | - | - |
| 1787903671 | 26.67° C | 67% | 1013.3 hPa | - | - | - | - |
| 1787903370 | 26.67° C | 66% | 1013.3 hPa | - | - | - | - |
| 1787903069 | 26.67° C | 66% | 1013.3 hPa | - | - | - | - |
| 1787902768 | 27.22° C | 66% | 1013.4 hPa | - | - | - | - |
| 1787902468 | 27.22° C | 65% | 1013.5 hPa | - | - | - | - |
| 1787902167 | 27.22° C | 63% | 1013.4 hPa | - | - | - | - |
| 1787901866 | 27.22° C | 63% | 1013.4 hPa | - | - | - | - |
| 1787901565 | 27.22° C | 65% | 1013.3 hPa | - | - | - | - |
| 1787901264 | 27.22° C | 65% | 1013.3 hPa | - | - | - | - |
| 1787900963 | 27.78° C | 65% | 1013.3 hPa | - | - | - | - |
| 1787900662 | 27.78° C | 65% | 1013.1 hPa | - | - | - | - |
* Rain since midnight (hover to see other rain measurements)
** Current wind speed in m/s (hover to see current wind gust speed)